START_TIME,STEP,MOV.,AL01,t_acc.,AL02,t_acc.,E37,t_acc.,H21,t_acc.
1986-01-26 00:00:35.640 ,4,0,0.,24.0,0.,24.0,0.,24.0,0.,24.0
1986-01-26 00:00:59.640 ,3,1,0.,24.0,0.,24.0,0.,24.0,0.,24.0
1986-01-26 00:01:23.640 ,3,0,0.,24.0,0.,24.0,0.,24.0,0.,24.0
1986-01-26 00:01:47.640 ,2,1,0.,24.0,0.,24.0,0.,24.0,0.,24.0
1986-01-26 00:02:11.640 ,2,0,0.,24.0,0.,24.0,0.,24.0,0.,24.0
1986-01-26 00:02:35.640 ,1,1,0.,24.0,0.,24.0,0.,24.0,0.,24.0
1986-01-26 00:02:59.640 ,1,0,0.,24.0,1.,24.0,0.,24.0,0.,24.0
1986-01-26 00:03:23.640 ,0,1,0.,24.0,0.,24.0,0.,24.0,0.,24.0
1986-01-26 00:03:47.640 ,0,0,0.,24.0,0.,24.0,0.,24.0,0.,24.0
1986-01-26 00:04:11.640 ,0,1,0.,24.0,0.,24.0,0.,24.0,0.,24.0
1986-01-26 00:04:35.640 ,0,0,0.,24.0,0.,24.0,0.,24.0,0.,24.0
1986-01-26 00:04:59.640 ,1,1,0.,24.0,0.,24.0,0.,24.0,0.,24.0
1986-01-26 00:05:23.640 ,1,0,1.,24.0,0.,24.0,0.,24.0,0.,24.0
1986-01-26 00:05:47.640 ,2,1,0.,24.0,0.,24.0,0.,24.0,0.,24.0
1986-01-26 00:06:11.640 ,2,0,0.,24.0,0.,24.0,0.,24.0,0.,24.0
1986-01-26 00:06:35.640 ,3,1,0.,24.0,0.,24.0,0.,24.0,0.,24.0
1986-01-26 00:06:59.640 ,3,0,0.,24.0,0.,24.0,0.,24.0,0.,24.0
1986-01-26 00:07:23.640 ,4,1,0.,24.0,0.,24.0,0.,24.0,0.,24.0
1986-01-26 00:07:47.640 ,4,0,0.,24.0,0.,24.0,0.,24.0,0.,24.0
1986-01-26 00:08:11.640 ,5,1,0.,24.0,1.,24.0,0.,24.0,0.,24.0
1986-01-26 00:08:35.640 ,5,0,0.,24.0,0.,24.0,0.,24.0,0.,24.0
1986-01-26 00:08:59.640 ,6,1,0.,24.0,0.,24.0,0.,24.0,0.,24.0
1986-01-26 00:09:23.640 ,6,0,0.,24.0,0.,24.0,0.,24.0,0.,24.0
1986-01-26 00:09:47.640 ,7,1,9.,24.0,0.,24.0,0.,24.0,0.,24.0
1986-01-26 00:10:11.640 ,7,0,42.,24.0,0.,24.0,0.,24.0,0.,24.0
1986-01-26 00:10:35.640 ,7,1,27.,24.0,0.,24.0,0.,24.0,0.,24.0
1986-01-26 00:10:59.640 ,7,0,29.,24.0,1.,24.0,0.,24.0,0.,24.0
1986-01-26 00:11:23.640 ,6,1,25.,24.0,0.,24.0,0.,24.0,0.,24.0
1986-01-26 00:11:47.640 ,6,0,0.,24.0,0.,24.0,0.,24.0,0.,24.0
1986-01-26 00:12:11.640 ,5,1,0.,24.0,0.,24.0,0.,24.0,0.,24.0
1986-01-26 00:12:35.640 ,5,0,0.,24.0,0.,24.0,0.,24.0,0.,24.0
1986-01-26 00:12:59.640 ,4,1,0.,24.0,0.,24.0,0.,24.0,0.,24.0
1986-01-26 00:13:23.640 ,4,0,0.,24.0,0.,24.0,0.,24.0,0.,24.0
1986-01-26 00:13:47.640 ,3,1,0.,24.0,0.,24.0,0.,24.0,0.,24.0
1986-01-26 00:14:11.640 ,3,0,0.,24.0,0.,24.0,0.,24.0,0.,24.0
1986-01-26 00:14:35.640 ,2,1,0.,24.0,0.,24.0,0.,24.0,0.,24.0
1986-01-26 00:14:59.640 ,2,0,0.,24.0,0.,24.0,0.,24.0,0.,24.0
1986-01-26 00:15:23.640 ,1,1,0.,24.0,0.,24.0,0.,24.0,0.,24.0
1986-01-26 00:15:47.640 ,1,0,0.,24.0,0.,24.0,0.,24.0,0.,24.0
1986-01-26 00:16:11.640 ,0,1,0.,24.0,0.,24.0,0.,24.0,0.,24.0
1986-01-26 00:16:35.640 ,0,0,0.,24.0,1.,24.0,0.,24.0,0.,24.0
1986-01-26 00:16:59.640 ,0,1,0.,24.0,0.,24.0,0.,24.0,0.,24.0
1986-01-26 00:17:23.640 ,0,0,0.,24.0,0.,24.0,0.,24.0,0.,24.0
1986-01-26 00:17:47.640 ,1,1,0.,24.0,0.,24.0,0.,24.0,0.,24.0
1986-01-26 00:18:11.640 ,1,0,0.,24.0,0.,24.0,0.,24.0,0.,24.0
1986-01-26 00:18:35.640 ,2,1,0.,24.0,1.,24.0,0.,24.0,0.,24.0
1986-01-26 00:18:59.640 ,2,0,0.,24.0,0.,24.0,0.,24.0,0.,24.0
1986-01-26 00:19:23.640 ,3,1,0.,24.0,0.,24.0,0.,24.0,0.,24.0
1986-01-26 00:19:47.640 ,3,0,0.,24.0,0.,24.0,0.,24.0,0.,24.0
1986-01-26 00:20:11.640 ,4,1,0.,24.0,0.,24.0,0.,24.0,0.,24.0
1986-01-26 00:20:35.640 ,4,0,0.,24.0,0.,24.0,0.,24.0,0.,24.0
1986-01-26 00:20:59.640 ,5,1,0.,24.0,0.,24.0,0.,24.0,0.,24.0
1986-01-26 00:21:23.640 ,5,0,0.,24.0,0.,24.0,0.,24.0,0.,24.0
1986-01-26 00:21:47.640 ,6,1,0.,24.0,0.,24.0,0.,24.0,0.,24.0
1986-01-26 00:22:11.640 ,6,0,0.,24.0,0.,24.0,0.,24.0,0.,24.0
1986-01-26 00:22:35.640 ,7,1,6.,24.0,0.,24.0,0.,24.0,0.,24.0
1986-01-26 00:22:59.640 ,7,0,29.,24.0,0.,24.0,0.,24.0,0.,24.0
1986-01-26 00:23:23.640 ,7,1,28.,24.0,0.,24.0,0.,24.0,0.,24.0
1986-01-26 00:23:47.640 ,7,0,22.,24.0,0.,24.0,0.,24.0,0.,24.0
1986-01-26 00:24:11.640 ,6,1,21.,24.0,0.,24.0,0.,24.0,0.,24.0
1986-01-26 00:24:35.640 ,6,0,0.,24.0,0.,24.0,0.,24.0,0.,24.0
1986-01-26 00:24:59.640 ,5,1,0.,24.0,0.,24.0,0.,24.0,0.,24.0
1986-01-26 00:25:23.640 ,5,0,0.,24.0,0.,24.0,0.,24.0,0.,24.0
1986-01-26 00:25:47.640 ,4,1,0.,24.0,0.,24.0,0.,24.0,0.,24.0
1986-01-26 00:26:11.640 ,4,0,0.,24.0,0.,24.0,0.,24.0,0.,24.0
1986-01-26 00:26:35.640 ,3,1,0.,24.0,0.,24.0,0.,24.0,0.,24.0
1986-01-26 00:26:59.640 ,3,0,0.,24.0,0.,24.0,0.,24.0,0.,24.0
1986-01-26 00:27:23.640 ,2,1,0.,24.0,0.,24.0,0.,24.0,0.,24.0
1986-01-26 00:27:47.640 ,2,0,0.,24.0,0.,24.0,0.,24.0,0.,24.0
1986-01-26 00:28:11.640 ,1,1,0.,24.0,0.,24.0,0.,24.0,0.,24.0
1986-01-26 00:28:35.640 ,1,0,0.,24.0,0.,24.0,0.,24.0,0.,24.0
1986-01-26 00:28:59.640 ,0,1,0.,24.0,0.,24.0,0.,24.0,0.,24.0
1986-01-26 00:29:23.640 ,0,0,0.,24.0,0.,24.0,0.,24.0,0.,24.0
1986-01-26 00:29:47.640 ,0,1,0.,24.0,0.,24.0,0.,24.0,0.,24.0
1986-01-26 00:30:11.640 ,0,0,0.,24.0,0.,24.0,0.,24.0,0.,24.0
1986-01-26 00:30:35.640 ,1,1,0.,24.0,0.,24.0,0.,24.0,0.,24.0
1986-01-26 00:30:59.640 ,1,0,0.,24.0,0.,24.0,0.,24.0,0.,24.0
1986-01-26 00:31:23.640 ,2,1,0.,24.0,0.,24.0,0.,24.0,0.,24.0
1986-01-26 00:31:47.640 ,2,0,0.,24.0,0.,24.0,0.,24.0,0.,24.0
1986-01-26 00:32:11.640 ,3,1,0.,24.0,0.,24.0,0.,24.0,0.,24.0
1986-01-26 00:32:35.640 ,3,0,0.,24.0,0.,24.0,0.,24.0,0.,24.0
1986-01-26 00:32:59.640 ,4,1,0.,24.0,0.,24.0,0.,24.0,0.,24.0
1986-01-26 00:33:23.640 ,4,0,0.,24.0,0.,24.0,0.,24.0,0.,24.0
1986-01-26 00:33:47.640 ,5,1,0.,24.0,0.,24.0,0.,24.0,0.,24.0
1986-01-26 00:34:11.640 ,5,0,0.,24.0,0.,24.0,0.,24.0,0.,24.0
1986-01-26 00:34:35.640 ,6,1,0.,24.0,0.,24.0,0.,24.0,0.,24.0
1986-01-26 00:34:59.640 ,6,0,0.,24.0,0.,24.0,0.,24.0,0.,24.0
1986-01-26 00:35:23.640 ,7,1,8.,24.0,0.,24.0,0.,24.0,0.,24.0
1986-01-26 00:35:47.640 ,7,0,34.,24.0,0.,24.0,0.,24.0,0.,24.0
1986-01-26 00:36:11.640 ,7,1,28.,24.0,0.,24.0,0.,24.0,0.,24.0
1986-01-26 00:36:35.640 ,7,0,29.,24.0,0.,24.0,0.,24.0,0.,24.0
1986-01-26 00:36:59.640 ,6,1,20.,24.0,0.,24.0,0.,24.0,0.,24.0
1986-01-26 00:37:23.640 ,6,0,0.,24.0,0.,24.0,0.,24.0,0.,24.0
1986-01-26 00:37:47.640 ,5,1,0.,24.0,0.,24.0,0.,24.0,0.,24.0
1986-01-26 00:38:11.640 ,5,0,0.,24.0,0.,24.0,0.,24.0,0.,24.0
1986-01-26 00:38:35.640 ,4,1,0.,24.0,0.,24.0,0.,24.0,0.,24.0
1986-01-26 00:38:59.640 ,4,0,0.,24.0,0.,24.0,0.,24.0,0.,24.0
1986-01-26 00:39:23.640 ,3,1,0.,24.0,0.,24.0,0.,24.0,0.,24.0
1986-01-26 00:39:47.640 ,3,0,0.,24.0,0.,24.0,0.,24.0,0.,24.0
1986-01-26 00:40:11.640 ,2,1,0.,24.0,0.,24.0,0.,24.0,0.,24.0
1986-01-26 00:40:35.640 ,2,0,0.,24.0,0.,24.0,0.,24.0,0.,24.0
1986-01-26 00:40:59.640 ,1,1,0.,24.0,0.,24.0,0.,24.0,0.,24.0
1986-01-26 00:41:23.640 ,1,0,0.,24.0,0.,24.0,0.,24.0,0.,24.0
1986-01-26 00:41:47.640 ,0,1,0.,24.0,0.,24.0,0.,24.0,0.,24.0
1986-01-26 00:42:11.640 ,0,0,0.,24.0,0.,24.0,0.,24.0,0.,24.0
1986-01-26 00:42:35.640 ,0,1,0.,24.0,0.,24.0,0.,24.0,0.,24.0
1986-01-26 00:42:59.640 ,0,0,0.,24.0,0.,24.0,0.,24.0,0.,24.0
1986-01-26 00:43:23.640 ,1,1,0.,24.0,0.,24.0,0.,24.0,0.,24.0
1986-01-26 00:43:47.640 ,1,0,0.,24.0,0.,24.0,0.,24.0,0.,24.0
1986-01-26 00:44:11.640 ,2,1,0.,24.0,0.,24.0,0.,24.0,0.,24.0
1986-01-26 00:44:35.640 ,2,0,0.,24.0,0.,24.0,0.,24.0,0.,24.0
1986-01-26 00:44:59.640 ,3,1,0.,24.0,0.,24.0,0.,24.0,0.,24.0
1986-01-26 00:45:23.640 ,3,0,0.,24.0,0.,24.0,0.,24.0,0.,24.0
1986-01-26 00:45:47.640 ,4,1,0.,24.0,0.,24.0,0.,24.0,0.,24.0
1986-01-26 00:46:11.640 ,4,0,0.,24.0,0.,24.0,0.,24.0,0.,24.0
1986-01-26 00:46:35.640 ,5,1,0.,24.0,0.,24.0,0.,24.0,0.,24.0
1986-01-26 00:46:59.640 ,5,0,0.,24.0,1.,24.0,0.,24.0,0.,24.0
1986-01-26 00:47:23.640 ,6,1,0.,24.0,0.,24.0,0.,24.0,0.,24.0
1986-01-26 00:47:47.640 ,6,0,0.,24.0,0.,24.0,0.,24.0,0.,24.0
1986-01-26 00:48:11.640 ,7,1,13.,24.0,0.,24.0,0.,24.0,0.,24.0
1986-01-26 00:48:35.640 ,7,0,47.,24.0,0.,24.0,0.,24.0,0.,24.0
1986-01-26 00:48:59.640 ,7,1,21.,24.0,0.,24.0,0.,24.0,0.,24.0
1986-01-26 00:49:23.640 ,7,0,36.,24.0,0.,24.0,0.,24.0,0.,24.0
1986-01-26 00:49:47.640 ,6,1,29.,24.0,0.,24.0,0.,24.0,0.,24.0
1986-01-26 00:50:11.640 ,6,0,0.,24.0,0.,24.0,0.,24.0,0.,24.0
1986-01-26 00:50:35.640 ,5,1,0.,24.0,0.,24.0,0.,24.0,0.,24.0
1986-01-26 00:50:59.640 ,5,0,0.,24.0,0.,24.0,0.,24.0,0.,24.0
1986-01-26 00:51:23.640 ,4,1,0.,24.0,0.,24.0,0.,24.0,0.,24.0
1986-01-26 00:51:47.640 ,4,0,0.,24.0,0.,24.0,0.,24.0,0.,24.0
1986-01-26 00:52:11.640 ,3,1,0.,24.0,0.,24.0,0.,24.0,0.,24.0
1986-01-26 00:52:35.640 ,3,0,0.,24.0,0.,24.0,0.,24.0,0.,24.0
1986-01-26 00:52:59.640 ,2,1,0.,24.0,0.,24.0,0.,24.0,0.,24.0
1986-01-26 00:53:23.640 ,2,0,0.,24.0,0.,24.0,0.,24.0,0.,24.0
1986-01-26 00:53:47.640 ,1,1,1.,24.0,0.,24.0,0.,24.0,0.,24.0
1986-01-26 00:54:11.640 ,1,0,0.,24.0,0.,24.0,0.,24.0,0.,24.0
1986-01-26 00:54:35.640 ,0,1,0.,24.0,0.,24.0,0.,24.0,0.,24.0
1986-01-26 00:54:59.640 ,0,0,0.,24.0,0.,24.0,0.,24.0,0.,24.0
1986-01-26 00:55:23.640 ,0,1,0.,24.0,0.,24.0,0.,24.0,0.,24.0
1986-01-26 00:55:47.640 ,0,0,0.,24.0,0.,24.0,0.,24.0,0.,24.0
1986-01-26 00:56:11.640 ,1,1,0.,24.0,0.,24.0,0.,24.0,0.,24.0
1986-01-26 00:56:35.640 ,1,0,0.,24.0,0.,24.0,0.,24.0,0.,24.0
1986-01-26 00:56:59.640 ,2,1,0.,24.0,0.,24.0,0.,24.0,0.,24.0
1986-01-26 00:57:23.640 ,2,0,0.,24.0,0.,24.0,0.,24.0,0.,24.0
1986-01-26 00:57:47.640 ,3,1,0.,24.0,0.,24.0,0.,24.0,0.,24.0
1986-01-26 00:58:11.640 ,3,0,0.,24.0,0.,24.0,0.,24.0,0.,24.0
1986-01-26 00:58:35.640 ,4,1,0.,24.0,0.,24.0,0.,24.0,0.,24.0
1986-01-26 00:58:59.640 ,4,0,0.,24.0,0.,24.0,0.,24.0,0.,24.0
1986-01-26 00:59:23.640 ,5,1,0.,24.0,0.,24.0,0.,24.0,0.,24.0
1986-01-26 00:59:47.640 ,5,0,0.,24.0,0.,24.0,0.,24.0,0.,24.0
1986-01-26 01:00:11.640 ,6,1,0.,24.0,0.,24.0,0.,24.0,0.,24.0
1986-01-26 01:00:35.640 ,6,0,0.,24.0,1.,24.0,0.,24.0,0.,24.0
1986-01-26 01:00:59.640 ,7,1,9.,24.0,0.,24.0,0.,24.0,0.,24.0
1986-01-26 01:01:23.640 ,7,0,30.,24.0,0.,24.0,0.,24.0,0.,24.0
1986-01-26 01:01:47.640 ,7,1,30.,24.0,0.,24.0,0.,24.0,0.,24.0
1986-01-26 01:02:11.640 ,7,0,31.,24.0,0.,24.0,0.,24.0,0.,24.0
1986-01-26 01:02:35.640 ,6,1,21.,24.0,0.,24.0,0.,24.0,0.,24.0
1986-01-26 01:02:59.640 ,6,0,0.,24.0,0.,24.0,0.,24.0,0.,24.0
1986-01-26 01:03:23.640 ,5,1,0.,24.0,0.,24.0,0.,24.0,0.,24.0
1986-01-26 01:03:47.640 ,5,0,1.,24.0,0.,24.0,0.,24.0,0.,24.0
1986-01-26 01:04:11.640 ,4,1,0.,24.0,0.,24.0,0.,24.0,0.,24.0
1986-01-26 01:04:35.640 ,4,0,0.,24.0,0.,24.0,0.,24.0,0.,24.0
1986-01-26 01:04:59.640 ,3,1,0.,24.0,0.,24.0,0.,24.0,0.,24.0
1986-01-26 01:05:23.640 ,3,0,0.,24.0,0.,24.0,0.,24.0,0.,24.0
1986-01-26 01:05:47.640 ,2,1,0.,24.0,0.,24.0,0.,24.0,0.,24.0
1986-01-26 01:06:11.640 ,2,0,0.,24.0,0.,24.0,0.,24.0,0.,24.0
1986-01-26 01:06:35.640 ,1,1,1.,24.0,1.,24.0,0.,24.0,0.,24.0
1986-01-26 01:06:59.640 ,1,0,0.,24.0,0.,24.0,0.,24.0,0.,24.0
1986-01-26 01:07:23.640 ,0,1,0.,24.0,0.,24.0,0.,24.0,0.,24.0
1986-01-26 01:07:47.640 ,0,0,0.,24.0,0.,24.0,0.,24.0,0.,24.0
1986-01-26 01:08:11.640 ,0,1,0.,24.0,0.,24.0,0.,24.0,0.,24.0
1986-01-26 01:08:35.640 ,0,0,0.,24.0,0.,24.0,0.,24.0,0.,24.0
1986-01-26 01:08:59.640 ,1,1,0.,24.0,0.,24.0,0.,24.0,0.,24.0
1986-01-26 01:09:23.640 ,1,0,1.,24.0,0.,24.0,0.,24.0,0.,24.0
1986-01-26 01:09:47.640 ,2,1,1.,24.0,0.,24.0,0.,24.0,0.,24.0
1986-01-26 01:10:11.640 ,2,0,0.,24.0,0.,24.0,0.,24.0,0.,24.0
1986-01-26 01:10:35.640 ,3,1,0.,24.0,0.,24.0,0.,24.0,0.,24.0
1986-01-26 01:10:59.640 ,3,0,0.,24.0,0.,24.0,0.,24.0,0.,24.0
1986-01-26 01:11:23.640 ,4,1,0.,24.0,1.,24.0,0.,24.0,0.,24.0
1986-01-26 01:11:47.640 ,4,0,0.,24.0,0.,24.0,0.,24.0,0.,24.0
1986-01-26 01:12:11.640 ,5,1,0.,24.0,0.,24.0,0.,24.0,0.,24.0
1986-01-26 01:12:35.640 ,5,0,0.,24.0,0.,24.0,0.,24.0,0.,24.0
1986-01-26 01:12:59.640 ,6,1,0.,24.0,0.,24.0,0.,24.0,0.,24.0
1986-01-26 01:13:23.640 ,6,0,0.,24.0,0.,24.0,0.,24.0,0.,24.0
1986-01-26 01:13:47.640 ,7,1,5.,24.0,0.,24.0,0.,24.0,0.,24.0
1986-01-26 01:14:11.640 ,7,0,31.,24.0,0.,24.0,0.,24.0,0.,24.0
1986-01-26 01:14:35.640 ,7,1,30.,24.0,0.,24.0,0.,24.0,0.,24.0
1986-01-26 01:14:59.640 ,7,0,34.,24.0,1.,24.0,0.,24.0,0.,24.0
1986-01-26 01:15:23.640 ,6,1,19.,24.0,0.,24.0,0.,24.0,0.,24.0
1986-01-26 01:15:47.640 ,6,0,0.,24.0,0.,24.0,0.,24.0,0.,24.0
1986-01-26 01:16:11.640 ,5,1,0.,24.0,0.,24.0,0.,24.0,0.,24.0
1986-01-26 01:16:35.640 ,5,0,0.,24.0,0.,24.0,0.,24.0,0.,24.0
1986-01-26 01:16:59.640 ,4,1,0.,24.0,0.,24.0,0.,24.0,0.,24.0
1986-01-26 01:17:23.640 ,4,0,0.,24.0,0.,24.0,0.,24.0,0.,24.0
1986-01-26 01:17:47.640 ,3,1,0.,24.0,0.,24.0,0.,24.0,0.,24.0
1986-01-26 01:18:11.640 ,3,0,1.,24.0,0.,24.0,0.,24.0,0.,24.0
1986-01-26 01:18:35.640 ,2,1,0.,24.0,0.,24.0,0.,24.0,0.,24.0
1986-01-26 01:18:59.640 ,2,0,0.,24.0,0.,24.0,0.,24.0,0.,24.0
1986-01-26 01:19:23.640 ,1,1,0.,24.0,0.,24.0,0.,24.0,0.,24.0
1986-01-26 01:19:47.640 ,1,0,0.,24.0,0.,24.0,0.,24.0,0.,24.0
1986-01-26 01:20:11.640 ,0,1,0.,24.0,0.,24.0,0.,24.0,0.,24.0
1986-01-26 01:20:35.640 ,0,0,0.,24.0,0.,24.0,0.,24.0,0.,24.0
1986-01-26 01:20:59.640 ,0,1,1.,24.0,0.,24.0,0.,24.0,0.,24.0
1986-01-26 01:21:23.640 ,0,0,0.,24.0,0.,24.0,0.,24.0,0.,24.0
1986-01-26 01:21:47.640 ,1,1,0.,24.0,0.,24.0,0.,24.0,0.,24.0
1986-01-26 01:22:11.640 ,1,0,0.,24.0,0.,24.0,0.,24.0,0.,24.0
1986-01-26 01:22:35.640 ,2,1,0.,24.0,0.,24.0,0.,24.0,0.,24.0
1986-01-26 01:22:59.640 ,2,0,0.,24.0,0.,24.0,0.,24.0,0.,24.0
1986-01-26 01:23:23.640 ,3,1,0.,24.0,0.,24.0,0.,24.0,0.,24.0
1986-01-26 01:23:47.640 ,3,0,1.,24.0,0.,24.0,0.,24.0,0.,24.0
1986-01-26 01:24:11.640 ,4,1,0.,24.0,0.,24.0,0.,24.0,0.,24.0
1986-01-26 01:24:35.640 ,4,0,0.,24.0,0.,24.0,0.,24.0,0.,24.0
1986-01-26 01:24:59.640 ,5,1,0.,24.0,1.,24.0,0.,24.0,0.,24.0
1986-01-26 01:25:23.640 ,5,0,0.,24.0,0.,24.0,0.,24.0,0.,24.0
1986-01-26 01:25:47.640 ,6,1,0.,24.0,0.,24.0,0.,24.0,0.,24.0
1986-01-26 01:26:11.640 ,6,0,0.,24.0,0.,24.0,0.,24.0,0.,24.0
1986-01-26 01:26:35.640 ,7,1,2.,24.0,0.,24.0,0.,24.0,0.,24.0
1986-01-26 01:26:59.640 ,7,0,32.,24.0,0.,24.0,0.,24.0,0.,24.0
1986-01-26 01:27:23.640 ,7,1,36.,24.0,0.,24.0,0.,24.0,0.,24.0
1986-01-26 01:27:47.640 ,7,0,20.,24.0,1.,24.0,0.,24.0,0.,24.0
1986-01-26 01:28:11.640 ,6,1,28.,24.0,0.,24.0,0.,24.0,0.,24.0
1986-01-26 01:28:35.640 ,6,0,0.,24.0,0.,24.0,0.,24.0,0.,24.0
1986-01-26 01:28:59.640 ,5,1,0.,24.0,0.,24.0,0.,24.0,0.,24.0
1986-01-26 01:29:23.640 ,5,0,0.,24.0,0.,24.0,0.,24.0,0.,24.0
1986-01-26 01:29:47.640 ,4,1,1.,24.0,0.,24.0,0.,24.0,0.,24.0
1986-01-26 01:30:11.640 ,4,0,0.,24.0,0.,24.0,0.,24.0,0.,24.0
1986-01-26 01:30:35.640 ,3,1,0.,24.0,0.,24.0,0.,24.0,0.,24.0
1986-01-26 01:30:59.640 ,3,0,0.,24.0,2.,24.0,0.,24.0,0.,24.0
1986-01-26 01:31:23.640 ,2,1,0.,24.0,0.,24.0,0.,24.0,0.,24.0
1986-01-26 01:31:47.640 ,2,0,0.,24.0,0.,24.0,0.,24.0,0.,24.0
1986-01-26 01:32:11.640 ,1,1,0.,24.0,1.,24.0,0.,24.0,0.,24.0
1986-01-26 01:32:35.640 ,1,0,0.,24.0,0.,24.0,0.,24.0,0.,24.0
1986-01-26 01:32:59.640 ,0,1,0.,24.0,0.,24.0,0.,24.0,0.,24.0
1986-01-26 01:33:23.640 ,0,0,0.,24.0,0.,24.0,0.,24.0,0.,24.0
1986-01-26 01:33:47.640 ,0,1,0.,24.0,0.,24.0,0.,24.0,0.,24.0
1986-01-26 01:34:11.640 ,0,0,0.,24.0,0.,24.0,0.,24.0,0.,24.0
1986-01-26 01:34:35.640 ,1,1,0.,24.0,0.,24.0,0.,24.0,0.,24.0
1986-01-26 01:34:59.640 ,1,0,0.,24.0,0.,24.0,0.,24.0,0.,24.0
1986-01-26 01:35:23.640 ,2,1,0.,24.0,0.,24.0,0.,24.0,0.,24.0
1986-01-26 01:35:47.640 ,2,0,0.,24.0,0.,24.0,0.,24.0,0.,24.0
1986-01-26 01:36:11.640 ,3,1,0.,24.0,0.,24.0,0.,24.0,0.,24.0
1986-01-26 01:36:35.640 ,3,0,0.,24.0,0.,24.0,0.,24.0,0.,24.0
1986-01-26 01:36:59.640 ,4,1,0.,24.0,0.,24.0,0.,24.0,0.,24.0
1986-01-26 01:37:23.640 ,4,0,0.,24.0,0.,24.0,0.,24.0,0.,24.0
1986-01-26 01:37:47.640 ,5,1,0.,24.0,0.,24.0,0.,24.0,0.,24.0
1986-01-26 01:38:11.640 ,5,0,0.,24.0,0.,24.0,0.,24.0,0.,24.0
1986-01-26 01:38:35.640 ,6,1,0.,24.0,0.,24.0,0.,24.0,0.,24.0
1986-01-26 01:38:59.640 ,6,0,0.,24.0,0.,24.0,0.,24.0,0.,24.0
1986-01-26 01:39:23.640 ,7,1,9.,24.0,0.,24.0,0.,24.0,0.,24.0
1986-01-26 01:39:47.640 ,7,0,24.,24.0,0.,24.0,0.,24.0,0.,24.0
1986-01-26 01:40:11.640 ,7,1,31.,24.0,0.,24.0,0.,24.0,0.,24.0
1986-01-26 01:40:35.640 ,7,0,30.,24.0,0.,24.0,0.,24.0,0.,24.0
1986-01-26 01:40:59.640 ,6,1,20.,24.0,0.,24.0,0.,24.0,0.,24.0
1986-01-26 01:41:23.640 ,6,0,0.,24.0,0.,24.0,0.,24.0,0.,24.0
1986-01-26 01:41:47.640 ,5,1,0.,24.0,0.,24.0,0.,24.0,0.,24.0
1986-01-26 01:42:11.640 ,5,0,0.,24.0,0.,24.0,0.,24.0,0.,24.0
1986-01-26 01:42:35.640 ,4,1,0.,24.0,0.,24.0,0.,24.0,0.,24.0
1986-01-26 01:42:59.640 ,4,0,0.,24.0,0.,24.0,0.,24.0,0.,24.0
1986-01-26 01:43:23.640 ,3,1,0.,24.0,0.,24.0,0.,24.0,0.,24.0
1986-01-26 01:43:47.640 ,3,0,0.,24.0,0.,24.0,0.,24.0,0.,24.0
1986-01-26 01:44:11.640 ,2,1,0.,24.0,0.,24.0,0.,24.0,0.,24.0
1986-01-26 01:44:35.640 ,2,0,0.,24.0,0.,24.0,0.,24.0,0.,24.0
1986-01-26 01:44:59.640 ,1,1,1.,24.0,0.,24.0,0.,24.0,0.,24.0
1986-01-26 01:45:23.640 ,1,0,0.,24.0,0.,24.0,0.,24.0,0.,24.0
1986-01-26 01:45:47.640 ,0,1,0.,24.0,0.,24.0,0.,24.0,0.,24.0
1986-01-26 01:46:11.640 ,0,0,0.,24.0,0.,24.0,0.,24.0,0.,24.0
1986-01-26 01:46:35.640 ,0,1,0.,24.0,0.,24.0,0.,24.0,0.,24.0
1986-01-26 01:46:59.640 ,0,0,0.,24.0,0.,24.0,0.,24.0,0.,24.0
1986-01-26 01:47:23.640 ,1,1,0.,24.0,0.,24.0,0.,24.0,0.,24.0
1986-01-26 01:47:47.640 ,1,0,0.,24.0,0.,24.0,0.,24.0,0.,24.0
1986-01-26 01:48:11.640 ,2,1,0.,24.0,0.,24.0,0.,24.0,0.,24.0
1986-01-26 01:48:35.640 ,2,0,0.,24.0,0.,24.0,0.,24.0,0.,24.0
1986-01-26 01:48:59.640 ,3,1,0.,24.0,0.,24.0,0.,24.0,0.,24.0
1986-01-26 01:49:23.640 ,3,0,0.,24.0,0.,24.0,0.,24.0,0.,24.0
1986-01-26 01:49:47.640 ,4,1,0.,24.0,0.,24.0,0.,24.0,0.,24.0
1986-01-26 01:50:11.640 ,4,0,0.,24.0,0.,24.0,0.,24.0,0.,24.0
1986-01-26 01:50:35.640 ,5,1,0.,24.0,1.,24.0,0.,24.0,0.,24.0
1986-01-26 01:50:59.640 ,5,0,0.,24.0,0.,24.0,0.,24.0,0.,24.0
1986-01-26 01:51:23.640 ,6,1,0.,24.0,1.,24.0,0.,24.0,0.,24.0
1986-01-26 01:51:47.640 ,6,0,0.,24.0,0.,24.0,0.,24.0,0.,24.0
1986-01-26 01:52:11.640 ,7,1,6.,24.0,0.,24.0,0.,24.0,0.,24.0
1986-01-26 01:52:35.640 ,7,0,29.,24.0,0.,24.0,0.,24.0,0.,24.0
1986-01-26 01:52:59.640 ,7,1,33.,24.0,0.,24.0,0.,24.0,0.,24.0
1986-01-26 01:53:23.640 ,7,0,34.,24.0,0.,24.0,0.,24.0,0.,24.0
1986-01-26 01:53:47.640 ,6,1,24.,24.0,0.,24.0,0.,24.0,0.,24.0
1986-01-26 01:54:11.640 ,6,0,0.,24.0,0.,24.0,0.,24.0,0.,24.0
1986-01-26 01:54:35.640 ,5,1,0.,24.0,0.,24.0,0.,24.0,0.,24.0
1986-01-26 01:54:59.640 ,5,0,0.,24.0,0.,24.0,0.,24.0,0.,24.0
1986-01-26 01:55:23.640 ,4,1,0.,24.0,0.,24.0,0.,24.0,0.,24.0
1986-01-26 01:55:47.640 ,4,0,0.,24.0,0.,24.0,0.,24.0,0.,24.0
1986-01-26 01:56:11.640 ,3,1,0.,24.0,0.,24.0,0.,24.0,0.,24.0
1986-01-26 01:56:35.640 ,3,0,0.,24.0,0.,24.0,0.,24.0,0.,24.0
1986-01-26 01:56:59.640 ,2,1,1.,24.0,0.,24.0,0.,24.0,0.,24.0
1986-01-26 01:57:23.640 ,2,0,0.,24.0,0.,24.0,0.,24.0,0.,24.0
1986-01-26 01:57:47.640 ,1,1,0.,24.0,0.,24.0,0.,24.0,0.,24.0
1986-01-26 01:58:11.640 ,1,0,0.,24.0,0.,24.0,0.,24.0,0.,24.0
1986-01-26 01:58:35.640 ,0,1,0.,24.0,0.,24.0,0.,24.0,0.,24.0
1986-01-26 01:58:59.640 ,0,0,0.,24.0,0.,24.0,0.,24.0,0.,24.0
1986-01-26 01:59:23.640 ,0,1,0.,24.0,0.,24.0,0.,24.0,0.,24.0
1986-01-26 01:59:47.640 ,0,0,0.,24.0,0.,24.0,0.,24.0,0.,24.0
1986-01-26 02:00:11.630 ,1,1,0.,24.0,0.,24.0,0.,24.0,0.,24.0
1986-01-26 02:00:35.640 ,1,0,0.,24.0,0.,24.0,0.,24.0,0.,24.0
1986-01-26 02:00:59.640 ,2,1,0.,24.0,0.,24.0,0.,24.0,0.,24.0
1986-01-26 02:01:23.640 ,2,0,0.,24.0,0.,24.0,0.,24.0,0.,24.0
1986-01-26 02:01:47.640 ,3,1,0.,24.0,0.,24.0,0.,24.0,0.,24.0
1986-01-26 02:02:11.630 ,3,0,1.,24.0,0.,24.0,0.,24.0,0.,24.0
1986-01-26 02:02:35.640 ,4,1,0.,24.0,0.,24.0,0.,24.0,0.,24.0
1986-01-26 02:02:59.640 ,0,0,0.,24.0,0.,24.0,0.,24.0,0.,24.0
1986-01-26 02:03:23.640 ,0,0,0.,24.0,0.,24.0,0.,24.0,0.,24.0
1986-01-26 02:03:47.640 ,0,0,0.,24.0,0.,24.0,0.,24.0,0.,24.0
1986-01-26 02:04:11.640 ,6,1,0.,24.0,0.,24.0,0.,24.0,0.,24.0
1986-01-26 02:04:35.640 ,6,0,0.,24.0,0.,24.0,0.,24.0,0.,24.0
1986-01-26 02:04:59.640 ,7,1,6.,24.0,0.,24.0,0.,24.0,0.,24.0
1986-01-26 02:05:23.640 ,7,0,30.,24.0,0.,24.0,0.,24.0,0.,24.0
1986-01-26 02:05:47.640 ,7,1,32.,24.0,0.,24.0,0.,24.0,0.,24.0
1986-01-26 02:06:11.630 ,7,0,27.,24.0,0.,24.0,0.,24.0,0.,24.0
1986-01-26 02:06:35.630 ,6,1,19.,24.0,0.,24.0,0.,24.0,0.,24.0
1986-01-26 02:06:59.630 ,6,0,0.,24.0,0.,24.0,0.,24.0,0.,24.0
1986-01-26 02:07:23.630 ,5,1,0.,24.0,0.,24.0,0.,24.0,0.,24.0
1986-01-26 02:07:47.630 ,5,0,0.,24.0,0.,24.0,0.,24.0,0.,24.0
1986-01-26 02:08:11.630 ,4,1,0.,24.0,0.,24.0,0.,24.0,0.,24.0
1986-01-26 02:08:35.630 ,4,0,0.,24.0,0.,24.0,0.,24.0,0.,24.0
1986-01-26 02:09:47.630 ,0,0,,0,,0,,0,,0
1986-01-26 02:10:11.630 ,0,0,0.,24.0,0.,24.0,0.,24.0,0.,24.0
1986-01-26 02:10:35.630 ,1,1,0.,24.0,2.,24.0,0.,24.0,0.,24.0
1986-01-26 02:10:59.630 ,1,0,0.,24.0,0.,24.0,0.,24.0,0.,24.0
1986-01-26 02:11:23.630 ,0,1,0.,24.0,0.,24.0,0.,24.0,0.,24.0
1986-01-26 02:11:47.630 ,0,0,0.,24.0,0.,24.0,0.,24.0,0.,24.0
1986-01-26 02:12:11.630 ,0,1,0.,24.0,0.,24.0,0.,24.0,0.,24.0
1986-01-26 02:12:35.630 ,0,0,0.,24.0,0.,24.0,0.,24.0,0.,24.0
1986-01-26 02:12:59.630 ,1,1,0.,24.0,0.,24.0,0.,24.0,0.,24.0
1986-01-26 02:13:23.630 ,1,0,0.,24.0,0.,24.0,0.,24.0,0.,24.0
1986-01-26 02:13:47.630 ,2,1,0.,24.0,0.,24.0,0.,24.0,0.,24.0
1986-01-26 02:14:11.630 ,2,0,0.,24.0,0.,24.0,0.,24.0,0.,24.0
1986-01-26 02:14:35.630 ,3,1,0.,24.0,0.,24.0,0.,24.0,0.,24.0
1986-01-26 02:14:59.630 ,3,0,0.,24.0,0.,24.0,0.,24.0,0.,24.0
1986-01-26 02:15:23.630 ,4,1,0.,24.0,0.,24.0,0.,24.0,0.,24.0
1986-01-26 02:15:47.630 ,4,0,0.,24.0,0.,24.0,0.,24.0,0.,24.0
1986-01-26 02:16:11.630 ,5,1,0.,24.0,0.,24.0,0.,24.0,0.,24.0
1986-01-26 02:16:35.630 ,0,0,0.,24.0,0.,24.0,0.,24.0,0.,24.0
1986-01-26 02:25:56.030 ,0,0,0.,24.0,0.,24.0,0.,24.0,0.,24.0
1986-01-26 02:26:11.630 ,0,0,0.,24.0,1.,24.0,0.,24.0,0.,24.0
1986-01-26 02:26:35.630 ,2,1,0.,24.0,0.,24.0,0.,24.0,0.,24.0
1986-01-26 02:26:59.630 ,2,0,0.,24.0,0.,24.0,0.,24.0,0.,24.0
1986-01-26 02:27:23.630 ,3,1,0.,24.0,0.,24.0,0.,24.0,0.,24.0
1986-01-26 02:27:47.630 ,3,0,0.,24.0,0.,24.0,0.,24.0,0.,24.0
1986-01-26 02:28:11.630 ,4,1,0.,24.0,0.,24.0,0.,24.0,0.,24.0
1986-01-26 02:28:35.630 ,4,0,0.,24.0,0.,24.0,0.,24.0,0.,24.0
1986-01-26 02:28:59.630 ,5,1,0.,24.0,0.,24.0,0.,24.0,0.,24.0
1986-01-26 02:29:23.630 ,5,0,0.,24.0,0.,24.0,0.,24.0,0.,24.0
1986-01-26 02:29:47.630 ,6,1,0.,24.0,0.,24.0,0.,24.0,0.,24.0
1986-01-26 02:30:11.630 ,6,0,0.,24.0,0.,24.0,0.,24.0,0.,24.0
1986-01-26 02:30:35.630 ,7,1,9.,24.0,0.,24.0,0.,24.0,0.,24.0
1986-01-26 02:30:59.630 ,7,0,26.,24.0,0.,24.0,0.,24.0,0.,24.0
1986-01-26 02:31:23.630 ,7,1,32.,24.0,0.,24.0,0.,24.0,0.,24.0
1986-01-26 02:31:47.630 ,7,0,27.,24.0,0.,24.0,0.,24.0,0.,24.0
1986-01-26 02:32:11.630 ,6,1,29.,24.0,0.,24.0,0.,24.0,0.,24.0
1986-01-26 02:32:35.630 ,6,0,0.,24.0,0.,24.0,0.,24.0,0.,24.0
1986-01-26 02:32:59.630 ,5,1,0.,24.0,0.,24.0,0.,24.0,0.,24.0
1986-01-26 02:33:23.630 ,5,0,0.,24.0,0.,24.0,0.,24.0,0.,24.0
1986-01-26 02:33:47.630 ,4,1,0.,24.0,0.,24.0,0.,24.0,0.,24.0
1986-01-26 02:34:11.630 ,4,0,0.,24.0,0.,24.0,0.,24.0,0.,24.0
1986-01-26 02:34:35.630 ,3,1,0.,24.0,0.,24.0,0.,24.0,0.,24.0
1986-01-26 02:34:59.630 ,3,0,0.,24.0,0.,24.0,0.,24.0,0.,24.0
1986-01-26 02:35:23.630 ,2,1,0.,24.0,0.,24.0,0.,24.0,0.,24.0
1986-01-26 02:35:47.630 ,2,0,0.,24.0,0.,24.0,0.,24.0,0.,24.0
1986-01-26 02:36:11.630 ,1,1,0.,24.0,0.,24.0,0.,24.0,0.,24.0
1986-01-26 02:36:35.630 ,1,0,0.,24.0,0.,24.0,0.,24.0,0.,24.0
1986-01-26 02:36:59.630 ,0,1,0.,24.0,0.,24.0,0.,24.0,0.,24.0
1986-01-26 02:37:23.630 ,0,0,0.,24.0,0.,24.0,0.,24.0,0.,24.0
1986-01-26 02:37:47.630 ,0,1,0.,24.0,0.,24.0,0.,24.0,0.,24.0
1986-01-26 02:38:11.630 ,0,0,0.,24.0,0.,24.0,0.,24.0,0.,24.0
1986-01-26 02:38:35.630 ,1,1,0.,24.0,0.,24.0,0.,24.0,0.,24.0
1986-01-26 02:38:59.630 ,1,0,0.,24.0,0.,24.0,0.,24.0,0.,24.0
1986-01-26 02:39:23.630 ,2,1,0.,24.0,0.,24.0,0.,24.0,0.,24.0
1986-01-26 02:39:47.630 ,2,0,0.,24.0,0.,24.0,0.,24.0,0.,24.0
1986-01-26 02:40:11.630 ,3,1,0.,24.0,0.,24.0,0.,24.0,0.,24.0
1986-01-26 02:40:35.630 ,3,0,0.,24.0,0.,24.0,0.,24.0,0.,24.0
1986-01-26 02:40:59.630 ,4,1,0.,24.0,0.,24.0,0.,24.0,0.,24.0
1986-01-26 02:41:23.630 ,4,0,0.,24.0,0.,24.0,0.,24.0,0.,24.0
1986-01-26 02:41:47.630 ,5,1,0.,24.0,0.,24.0,0.,24.0,0.,24.0
1986-01-26 02:42:11.630 ,5,0,0.,24.0,0.,24.0,0.,24.0,0.,24.0
1986-01-26 02:42:35.630 ,6,1,0.,24.0,1.,24.0,0.,24.0,0.,24.0
1986-01-26 02:42:59.630 ,6,0,1.,24.0,0.,24.0,0.,24.0,0.,24.0
1986-01-26 02:43:23.630 ,7,1,9.,24.0,0.,24.0,0.,24.0,0.,24.0
1986-01-26 02:43:47.630 ,7,0,22.,24.0,0.,24.0,0.,24.0,0.,24.0